Location: Strawberry
(45.6646°N, 111.9596°W)
Time: 21:28:45
(UTC+00:00)

Envisat - Pass Details

Date: 25 August 2022
Orbit: 764 x 765 km, 98.2° (Epoch: 27 September)

Event Time Altitude Azimuth Distance (km) Brightness Sun altitude
Rises 11:33:58 0° 17° (NNE) 3,242 7.0 -11.6°
Reaches altitude 10° 11:36:21 10° 23° (NNE) 2,311 6.3 -11.2°
Maximum altitude 11:41:19 52° 100° (E) 945 3.8 -10.4°
Drops below altitude 10° 11:46:15 10° 176° (S) 2,293 5.2 -9.7°
Sets 11:48:36 0° 182° (S) 3,214 6.0 -9.3°
